[Iaude] MPEC Q210: 2020 QG6 [a=2.26,e=0.45,i=10.2,H=22.5]

mpec at marsden.cfa.harvard.edu mpec at marsden.cfa.harvard.edu
Fri Aug 28 02:01:18 EDT 2020


M.P.E.C. 2020-Q210                              Issued 2020 August 28, 05:59 UT

     The Minor Planet Electronic Circulars contain information on unusual
         minor planets and routine data on comets.  They are published
    on behalf of Division F of the International Astronomical Union by the
          Minor Planet Center, Smithsonian Astrophysical Observatory,
                          Cambridge, MA 02138, U.S.A.

             Prepared using the Tamkin Foundation Computer Network

                              MPC at CFA.HARVARD.EDU
            URL https://www.minorplanetcenter.net/    ISSN 1523-6714

                                    2020 QG6                                    


Observations:
     K20Q06G  C2020 08 16.52379722 41 27.258+21 31 08.82         19.89GVEQ210F52
     K20Q06G  C2020 08 16.53615022 41 28.840+21 30 53.45         21.18GVEQ210F52
     K20Q06G  C2020 08 26.34145023 02 54.969+17 21 31.49         20.06GVEQ210F52
     K20Q06G  C2020 08 26.35427023 02 56.387+17 21 08.20         21.12GVEQ210F52
     K20Q06G  C2020 08 26.36711923 02 57.830+17 20 45.53         21.38GVEQ210F52
     K20Q06G  C2020 08 26.38002123 02 59.270+17 20 22.69         21.17GVEQ210F52
     K20Q06G* C2020 08 27.26582 23 04 47.01 +16 52 46.5                VEQ210G96
     K20Q06G  C2020 08 27.27103 23 04 47.62 +16 52 36.7          21.4 GVEQ210G96
     K20Q06G  C2020 08 27.27624 23 04 48.18 +16 52 27.5          20.4 GVEQ210G96
     K20Q06G  C2020 08 27.28146 23 04 48.72 +16 52 17.9          21.4 GVEQ210G96
     K20Q06G  C2020 08 27.37800 23 04 59.26 +16 49 15.8          20.2 GVEQ210I52
     K20Q06G  C2020 08 27.38182 23 04 59.66 +16 49 08.0          20.8 GVEQ210I52
     K20Q06G  C2020 08 27.38565 23 05 00.06 +16 49 00.9          20.8 GVEQ210I52
     K20Q06G  C2020 08 27.38948 23 05 00.48 +16 48 53.5          21.1 GVEQ210I52
     K20Q06G  C2020 08 27.53458423 05 17.703+16 44 25.30         20.68GVEQ210F52
     K20Q06G  C2020 08 27.54623823 05 18.968+16 44 02.42         21.09GVEQ210F52
     K20Q06G  C2020 08 27.55786923 05 20.213+16 43 40.00         20.84GVEQ210F52
     K20Q06G  C2020 08 27.56950723 05 21.492+16 43 17.48         20.51GVEQ210F52
     K20Q06G pC2020 08 27.86883823 06 00.05 +16 33 32.8          20.8 GVEQ210L01
     K20Q06G KC2020 08 27.87195823 06 00.37 +16 33 27.0          20.7 GVEQ210L01
     K20Q06G KC2020 08 27.87507723 06 00.69 +16 33 20.8          21.7 GVEQ210L01
     K20Q06G  C2020 08 28.21359 23 06 41.51 +16 22 35.6          20.8 GVEQ210I52
     K20Q06G  C2020 08 28.21550 23 06 41.68 +16 22 32.4          20.4 GVEQ210I52
     K20Q06G  C2020 08 28.21742 23 06 41.91 +16 22 27.6                VEQ210I52
     K20Q06G  C2020 08 28.21933 23 06 42.16 +16 22 24.7                VEQ210I52

Observer details:
F52 Pan-STARRS 2, Haleakala.  Observers J. Bulger, K. Chambers, T. Dukes, T.
    Lowe, A. Schultz, M. Willman.  Measurers S. Chastel, M. Huber, Y.
    Ramanjooloo, R. Wainscoat, R. Weryk.  1.8-m Ritchey-Chretien + CCD.
G96 Mt. Lemmon Survey.  Observer D. Rankin.  Measurers E. J. Christensen, G.
    A. Farneth, D. C. Fuls, A. R. Gibbs, A. D. Grauer, H. Groeller, R. A.
    Kowalski, S. M. Larson, G. J. Leonard, T. A. Pruyne, D. Rankin, R. L.
    Seaman, F. C. Shelly, K. W. Wierzchos.  1.5-m reflector + 10K CCD.
I52 Steward Observatory, Mt. Lemmon Station.  Observer D. C. Fuls.  Measurers
    E. J. Christensen, G. A. Farneth, D. C. Fuls, A. R. Gibbs, A. D. Grauer,
    H. Groeller, R. A. Kowalski, S. M. Larson, G. J. Leonard, T. A. Pruyne, D.
    Rankin, R. L. Seaman, F. C. Shelly, K. W. Wierzchos.  1.0-m reflector +
    CCD.
L01 Visnjan Observatory, Tican.  Observer K. Korlevic.  1.0-m f/2.9 reflector
    + CCD.

Orbital elements:
2020 QG6                                                 Earth MOID = 0.2468 AU
Epoch 2020 May 31.0 TT = JDT 2459000.5                  Bell
M 339.21018              (2000.0)            P               Q
n   0.29075128     Peri.  140.56158     +0.79991312     +0.60006243
a   2.2566019      Node   182.60337     -0.58546125     +0.77738047
e   0.4544710      Incl.   10.15016     -0.13181096     +0.18869202
P   3.39           H   22.5           G   0.15           U   7
Residuals in seconds of arc
200816 F52  0.3-  0.2+    200827 G96  0.4-  0.4+    200827 L01  0.4+  0.3+
200816 F52  0.3+  0.2-    200827 I52  0.4+  0.3+    200827 L01  0.0   0.4+
200826 F52  0.2+  0.2-    200827 I52  0.2+  0.2-    200827 L01  0.4-  0.1+
200826 F52  0.2-  0.5-    200827 I52  0.1-  0.0     200828 I52  0.1+  0.1-
200826 F52  0.0   0.0     200827 I52  0.0   0.1-    200828 I52  0.5-  0.3+
200826 F52  0.1+  0.4+    200827 F52  0.2+  0.4+    200828 I52  0.2-  0.9-
200827 G96  0.4-  0.2-    200827 F52  0.2+  0.1-    200828 I52  0.4+  0.2-
200827 G96  0.2+  0.3-    200827 F52  0.1-  0.0
200827 G96  0.0   0.2+    200827 F52  0.0   0.0

Ephemeris:
2020 QG6                 a,e,i = 2.26, 0.45, 10                  q = 1.2310
Date    TT    R. A. (2000) Decl.     Delta      r    Elong.  Phase     V
2020 07 29    21 57 00.3 +24 04 35   0.2996  1.2379   132.6    37.1    21.8
...
2020 08 13    22 33 14.3 +22 32 47   0.2694  1.2313   139.8    32.1    21.5
...
2020 08 21    22 51 32.4 +19 50 49   0.2608  1.2359   145.7    27.5    21.3
...
2020 08 27    23 04 13.8 +17 01 17   0.2586  1.2430   151.1    23.2    21.1
2020 08 28    23 06 14.5 +16 29 40   0.2586  1.2445   152.0    22.4    21.1
2020 08 29    23 08 13.3 +15 57 14   0.2588  1.2461   153.0    21.6    21.1
...
2020 09 04    23 19 22.8 +12 28 42   0.2623  1.2572   159.2    16.5    21.0
...
2020 09 12    23 32 14.4 +07 31 57   0.2747  1.2764   167.9     9.5    20.8
...
2020 09 27    23 51 01.0 -00 53 05   0.3240  1.3247   173.5     4.9    21.1

M. P. C. Staff               (C) Copyright 2020 MPC           M.P.E.C. 2020-Q210




More information about the Iaude mailing list